When you browse on this site, cookies collect data to enhance your experience and personalize the content and advertising you see.
Visit our Privacy Policy to learn more. By continuing to use the site, you agree to this use of cookies and data.
  • In Schweiz
  • Länderverzeichnis
  • Für 7 Tage
  • Wassertemperatur
  • Satellitenkarten
  • Wetterkarte
  • Widgets
  • user-avatar
    Anmelden

    Stündliche Wetter Tarin Kowt

    Heute, 25 April, Donnerstag

    Zeit Temperatur Niederschläge Wind Luftdruck Luftfeuchtigkeit
    00:00 +15°C° 0 mm 1 m/S 616 mmHg 37%
    01:00 +14°C° 0 mm 1 m/S 616 mmHg 39%
    02:00 +14°C° 0 mm 1 m/S 616 mmHg 40%
    03:00 +14°C° 0 mm 1 m/S 616 mmHg 40%
    04:00 +12°C° 0 mm 0 m/S 615 mmHg 41%
    05:00 +14°C° 0 mm 1 m/S 616 mmHg 35%
    06:00 +15°C° 0 mm 1 m/S 617 mmHg 30%
    07:00 +16°C° 0 mm 1 m/S 618 mmHg 24%
    08:00 +17°C° 0 mm 2 m/S 618 mmHg 22%
    09:00 +18°C° 0 mm 2 m/S 619 mmHg 20%
    10:00 +19°C° 0 mm 3 m/S 619 mmHg 18%
    11:00 +20°C° 0 mm 4 m/S 619 mmHg 17%
    12:00 +21°C° 0 mm 5 m/S 619 mmHg 17%
    13:00 +21°C° 0 mm 6 m/S 619 mmHg 16%
    14:00 +21°C° 0 mm 6 m/S 619 mmHg 16%
    15:00 +21°C° 0 mm 7 m/S 619 mmHg 17%
    16:00 +21°C° 0 mm 7 m/S 618 mmHg 17%
    17:00 +20°C° 0 mm 6 m/S 618 mmHg 20%
    18:00 +19°C° 0 mm 4 m/S 618 mmHg 23%
    19:00 +17°C° 0 mm 3 m/S 618 mmHg 26%
    20:00 +17°C° 0 mm 2 m/S 618 mmHg 29%
    21:00 +16°C° 0 mm 2 m/S 618 mmHg 31%
    22:00 +15°C° 0 mm 1 m/S 618 mmHg 34%
    23:00 +15°C° 0 mm 1 m/S 618 mmHg 36%

    Morgen, 26 April, Freitag

    Zeit Temperatur Niederschläge Wind Luftdruck Luftfeuchtigkeit
    00:00 +14°C° 0 mm 1 m/S 617 mmHg 37%
    01:00 +13°C° 0 mm 0 m/S 617 mmHg 38%
    02:00 +12°C° 0 mm 0 m/S 617 mmHg 39%
    03:00 +12°C° 0 mm 0 m/S 617 mmHg 39%
    04:00 +12°C° 0 mm 1 m/S 616 mmHg 39%
    05:00 +12°C° 0 mm 0 m/S 617 mmHg 35%
    06:00 +13°C° 0 mm 0 m/S 618 mmHg 30%
    07:00 +14°C° 0 mm 0 m/S 618 mmHg 25%
    08:00 +16°C° 0 mm 1 m/S 619 mmHg 23%
    09:00 +18°C° 0 mm 1 m/S 619 mmHg 20%
    10:00 +20°C° 0 mm 1 m/S 620 mmHg 18%
    11:00 +19°C° 0 mm 2 m/S 620 mmHg 17%
    12:00 +20°C° 0 mm 3 m/S 620 mmHg 16%
    13:00 +21°C° 0 mm 3 m/S 620 mmHg 16%
    14:00 +21°C° 0 mm 3 m/S 619 mmHg 15%
    15:00 +21°C° 0 mm 3 m/S 619 mmHg 15%
    16:00 +21°C° 0 mm 4 m/S 619 mmHg 15%
    17:00 +20°C° 0 mm 3 m/S 619 mmHg 18%
    18:00 +19°C° 0 mm 3 m/S 618 mmHg 21%
    19:00 +18°C° 0 mm 2 m/S 618 mmHg 23%
    20:00 +18°C° 0 mm 2 m/S 619 mmHg 26%
    21:00 +18°C° 0 mm 1 m/S 619 mmHg 29%
    22:00 +16°C° 0 mm 1 m/S 619 mmHg 31%
    23:00 +16°C° 0 mm 1 m/S 618 mmHg 33%

    übermorgen, 27 April, Samstag

    Zeit Temperatur Niederschläge Wind Luftdruck Luftfeuchtigkeit
    00:00 +14°C° 0 mm 0 m/S 618 mmHg 35%
    01:00 +14°C° 0 mm 0 m/S 618 mmHg 37%
    02:00 +13°C° 0 mm 0 m/S 617 mmHg 37%
    03:00 +13°C° 0 mm 0 m/S 617 mmHg 37%
    04:00 +12°C° 0 mm 0 m/S 617 mmHg 37%
    05:00 +13°C° 0 mm 0 m/S 618 mmHg 32%
    06:00 +15°C° 0 mm 1 m/S 619 mmHg 28%
    07:00 +16°C° 0 mm 1 m/S 619 mmHg 24%
    08:00 +19°C° 0 mm 1 m/S 620 mmHg 22%
    09:00 +20°C° 0 mm 1 m/S 620 mmHg 19%
    10:00 +21°C° 0 mm 1 m/S 620 mmHg 17%
    11:00 +22°C° 0 mm 1 m/S 620 mmHg 16%
    12:00 +21°C° 0 mm 2 m/S 620 mmHg 15%
    13:00 +22°C° 0 mm 3 m/S 620 mmHg 14%
    14:00 +22°C° 0 mm 3 m/S 620 mmHg 14%
    15:00 +22°C° 0 mm 3 m/S 619 mmHg 15%
    16:00 +22°C° 0 mm 4 m/S 619 mmHg 15%
    17:00 +21°C° 0 mm 3 m/S 619 mmHg 17%
    18:00 +20°C° 0 mm 2 m/S 619 mmHg 20%
    19:00 +19°C° 0 mm 2 m/S 618 mmHg 22%
    20:00 +19°C° 0 mm 2 m/S 618 mmHg 25%
    21:00 +19°C° 0 mm 1 m/S 619 mmHg 27%
    22:00 +18°C° 0 mm 1 m/S 619 mmHg 29%
    23:00 +18°C° 0 mm 1 m/S 618 mmHg 31%

    28 April, Sonntag

    Zeit Temperatur Niederschläge Wind Luftdruck Luftfeuchtigkeit
    00:00 +16°C° 0 mm 1 m/S 618 mmHg 33%
    01:00 +14°C° 0 mm 0 m/S 617 mmHg 35%
    02:00 +14°C° 0 mm 0 m/S 617 mmHg 35%
    03:00 +14°C° 0 mm 0 m/S 617 mmHg 35%
    04:00 +14°C° 0 mm 1 m/S 617 mmHg 35%
    05:00 +15°C° 0 mm 1 m/S 617 mmHg 31%
    06:00 +16°C° 0 mm 1 m/S 618 mmHg 27%
    07:00 +18°C° 0 mm 1 m/S 619 mmHg 23%
    08:00 +19°C° 0 mm 1 m/S 619 mmHg 21%
    09:00 +20°C° 0 mm 1 m/S 619 mmHg 20%
    10:00 +21°C° 0 mm 1 m/S 620 mmHg 18%
    11:00 +22°C° 0 mm 1 m/S 620 mmHg 16%
    12:00 +23°C° 0 mm 2 m/S 619 mmHg 15%
    13:00 +24°C° 0 mm 3 m/S 619 mmHg 14%
    14:00 +24°C° 0 mm 3 m/S 619 mmHg 14%
    15:00 +24°C° 0 mm 3 m/S 618 mmHg 13%
    16:00 +24°C° 0 mm 3 m/S 618 mmHg 13%
    17:00 +23°C° 0 mm 2 m/S 618 mmHg 17%
    18:00 +21°C° 0 mm 2 m/S 618 mmHg 20%
    19:00 +21°C° 0 mm 1 m/S 617 mmHg 23%
    20:00 +20°C° 0 mm 1 m/S 617 mmHg 25%
    21:00 +20°C° 0 mm 1 m/S 617 mmHg 27%
    22:00 +19°C° 0 mm 1 m/S 617 mmHg 29%
    23:00 +16°C° 0 mm 0 m/S 617 mmHg 30%

    29 April, Montag

    Zeit Temperatur Niederschläge Wind Luftdruck Luftfeuchtigkeit
    00:00 +16°C° 0 mm 0 m/S 616 mmHg 30%
    01:00 +15°C° 0 mm 0 m/S 616 mmHg 31%
    02:00 +16°C° 0 mm 1 m/S 616 mmHg 30%
    03:00 +15°C° 0 mm 1 m/S 615 mmHg 29%
    04:00 +15°C° 0 mm 1 m/S 615 mmHg 27%
    05:00 +16°C° 0 mm 1 m/S 616 mmHg 25%
    06:00 +18°C° 0 mm 1 m/S 616 mmHg 22%
    07:00 +19°C° 0 mm 1 m/S 617 mmHg 19%
    08:00 +21°C° 0 mm 1 m/S 617 mmHg 18%
    09:00 +22°C° 0 mm 1 m/S 617 mmHg 16%
    10:00 +21°C° 0 mm 0 m/S 618 mmHg 14%
    11:00 +24°C° 0 mm 1 m/S 617 mmHg 14%
    12:00 +24°C° 0 mm 2 m/S 617 mmHg 14%
    13:00 +25°C° 0 mm 3 m/S 617 mmHg 13%
    14:00 +25°C° 0 mm 3 m/S 616 mmHg 15%
    15:00 +24°C° 0 mm 3 m/S 616 mmHg 16%
    16:00 +22°C° 0 mm 3 m/S 615 mmHg 17%
    17:00 +22°C° 0 mm 3 m/S 615 mmHg 21%
    18:00 +21°C° 0 mm 3 m/S 615 mmHg 24%
    19:00 +20°C° 0 mm 2 m/S 615 mmHg 28%
    20:00 +19°C° 0 mm 2 m/S 615 mmHg 29%
    21:00 +19°C° 0 mm 2 m/S 615 mmHg 31%
    22:00 +19°C° 0 mm 2 m/S 616 mmHg 32%
    23:00 +18°C° 0 mm 2 m/S 615 mmHg 34%

    30 April, Dienstag

    Zeit Temperatur Niederschläge Wind Luftdruck Luftfeuchtigkeit
    00:00 +17°C° 0 mm 2 m/S 615 mmHg 35%
    01:00 +17°C° 0 mm 2 m/S 614 mmHg 36%
    02:00 +16°C° 0 mm 1 m/S 614 mmHg 38%
    03:00 +16°C° 0 mm 1 m/S 614 mmHg 40%
    04:00 +15°C° 0 mm 1 m/S 614 mmHg 42%
    05:00 +16°C° 0 mm 1 m/S 615 mmHg 39%
    06:00 +18°C° 0 mm 1 m/S 615 mmHg 35%
    07:00 +19°C° 0 mm 1 m/S 616 mmHg 32%
    08:00 +20°C° 0 mm 1 m/S 616 mmHg 30%
    09:00 +21°C° 0 mm 1 m/S 617 mmHg 27%
    10:00 +22°C° 0 mm 1 m/S 617 mmHg 24%
    11:00 +23°C° 0 mm 1 m/S 617 mmHg 23%
    12:00 +24°C° 0 mm 2 m/S 617 mmHg 21%
    13:00 +25°C° 0 mm 3 m/S 616 mmHg 20%
    14:00 +25°C° 0 mm 4 m/S 616 mmHg 20%
    15:00 +25°C° 0 mm 4 m/S 616 mmHg 19%
    16:00 +25°C° 0 mm 4 m/S 615 mmHg 18%
    17:00 +24°C° 0 mm 3 m/S 615 mmHg 21%
    18:00 +22°C° 0 mm 3 m/S 615 mmHg 24%
    19:00 +21°C° 0 mm 2 m/S 615 mmHg 26%
    20:00 +21°C° 0 mm 1 m/S 615 mmHg 29%
    21:00 +20°C° 0 mm 1 m/S 615 mmHg 31%
    22:00 +20°C° 0 mm 1 m/S 615 mmHg 33%
    23:00 +19°C° 0 mm 1 m/S 615 mmHg 35%
    Mehr zeigen